sat.trackr.live / text

‹ back to catalog

STARLINK-32771

NORAD 62573 · 2025-006V

PAYLOAD ACTIVE UNKNOWN

§ Identity

Operator
Country
US
Launch date
2025-01-10
Launch site
AFETR
Launch vehicle
Mass (kg)
RCS (m²)

Purposes: comms

External: N2YO · Heavens-Above · Gunter

§ Orbital elements

Epoch: 2026-05-24T22:01:15.316896Z

Period
94.27 min
Inclination
42.9987°
Eccentricity
0.0001796
Mean motion
15.27605242 rev/d
Perigee alt
481.7 km
Apogee alt
484.2 km
Semi-major
6,861.1 km
B*
4.6728e-4
RAAN
221.8241°
Arg perigee
272.0351°
Mean anomaly
88.0295°
Rev number
7,652

§ Raw data

STARLINK-327711 62573U 25006V   26144.91753839  .00012629  00000+0  46728-3 0  99972 62573  42.9987 221.8241 0001796 272.0351  88.0295 15.27605242 76523

JSON: /api/v1/satellites/62573 · /tle

For live sub-satellite position, see the globe view (requires WebGL).

§ Visibility from observer

Set your observer location to see the next 7 days of passes ≥ 10°. The values pass through the URL so the page stays shareable.

No JS? Fill the form by hand. The geolocation button needs JavaScript.